FW5449 Weather Reports


Display with metric or nautical units.
time (UTC)temp
F
wind
direction
speed
MPH
gust
MPH
rain 1hr
in
rain 24hr
in
rain mn
in
humidity
%
barometer
mb
20260510125317 51 179 3.0 4.0 0.00 0.00 0.00 89 1017.7
20260510124817 51 175 2.0 4.0 0.00 0.00 0.00 89 1017.5
20260510124314 51 185 2.0 4.0 0.00 0.00 0.00 89 1017.7
20260510124042 51 177 3.0 6.0 0.00 0.00 0.00 89 1017.6
20260510123800 51 167 4.0 7.0 0.00 0.00 0.00 89 1017.4
20260510122809 51 187 3.0 7.0 0.00 0.00 0.00 89 1017.3
20260510122306 51 190 3.0 6.0 0.00 0.00 0.00 88 1017.3
20260510121759 51 175 3.0 5.0 0.00 0.00 0.00 88 1017.3
20260510121256 51 198 3.0 6.0 0.00 0.00 0.00 88 1017.5
20260510120759 51 223 3.0 6.0 0.00 0.00 0.00 88 1017.6
20260510120251 51 180 2.0 4.0 0.00 0.00 0.00 88 1017.2
20260510115749 51 169 2.0 5.0 0.00 0.00 0.00 88 1017.4
20260510115249 51 179 3.0 5.0 0.00 0.00 0.00 88 1017.4
20260510114749 51 194 3.0 8.0 0.00 0.00 0.00 88 1017.4
20260510114244 51 195 3.0 8.0 0.00 0.00 0.00 88 1017.3
20260510113745 51 180 3.0 7.0 0.00 0.00 0.00 88 1017.3
20260510113245 51 179 4.0 9.0 0.00 0.00 0.00 88 1017.1
20260510112744 51 233 3.0 9.0 0.00 0.00 0.00 88 1017.3
20260510112242 51 221 3.0 7.0 0.00 0.00 0.00 88 1017.3
20260510111741 51 187 3.0 7.0 0.00 0.00 0.00 88 1017.1
20260510111242 52 182 4.0 7.0 0.00 0.00 0.00 88 1017.1
20260510110735 52 189 4.0 8.0 0.00 0.00 0.00 87 1017.2
20260510110720 52 216 4.0 8.0 0.00 0.00 0.00 87 1017.1
20260510105725 52 187 3.0 7.0 0.00 0.00 0.00 87 1017.1
20260510105225 52 213 3.0 7.0 0.00 0.00 0.00 87 1017.1
20260510104717 52 185 4.0 9.0 0.00 0.00 0.00 87 1017.1
20260510104215 53 214 5.0 10.0 0.00 0.00 0.00 86 1017.0
20260510103714 53 232 6.0 10.0 0.00 0.00 0.00 86 1017.0
20260510103216 53 240 5.0 9.0 0.00 0.00 0.00 86 1016.9
20260510102714 53 222 6.0 10.0 0.00 0.00 0.00 86 1016.7
20260510102214 53 239 7.0 13.0 0.00 0.00 0.00 86 1016.9
20260510101712 53 237 7.0 13.0 0.00 0.00 0.00 86 1016.9
20260510101212 53 228 5.0 12.0 0.00 0.00 0.00 86 1016.9
20260510100713 53 231 6.0 10.0 0.00 0.00 0.00 86 1016.9
20260510100433 53 230 6.0 11.0 0.00 0.00 0.00 86 1016.8
20260510095710 53 241 4.0 11.0 0.00 0.00 0.00 86 1016.7
20260510095211 53 220 3.0 7.0 0.00 0.00 0.00 85 1016.5
20260510094707 53 227 3.0 5.0 0.00 0.00 0.00 85 1016.5
20260510094205 53 198 3.0 5.0 0.00 0.00 0.00 85 1016.4
20260510093701 53 196 2.0 5.0 0.00 0.00 0.00 85 1016.3
20260510093156 54 219 2.0 4.0 0.00 0.00 0.00 85 1016.4
20260510092655 54 198 2.0 4.0 0.00 0.00 0.00 84 1016.3
20260510092154 54 223 2.0 4.0 0.00 0.00 0.00 84 1016.4
20260510091645 54 207 2.0 4.0 0.00 0.00 0.00 84 1016.3
20260510091150 54 180 2.0 4.0 0.00 0.00 0.00 83 1016.3
20260510090647 54 194 2.0 4.0 0.00 0.00 0.00 83 1016.2
20260510090146 54 181 2.0 5.0 0.00 0.00 0.00 83 1016.3
20260510085646 55 223 2.0 5.0 0.00 0.00 0.00 83 1016.4
20260510085136 55 161 1.0 4.0 0.00 0.00 0.00 82 1016.3
20260510084623 55 164 1.0 4.0 0.00 0.00 0.00 82 1016.4
20260510084104 55 196 2.0 4.0 0.00 0.00 0.00 82 1016.3
20260510083558 55 222 4.0 8.0 0.00 0.00 0.00 82 1016.4
20260510083054 55 212 4.0 8.0 0.00 0.00 0.00 81 1016.3
20260510082554 55 234 4.0 8.0 0.00 0.00 0.00 81 1016.4
20260510082055 56 224 3.0 5.0 0.00 0.00 0.00 81 1016.3
20260510081551 56 195 3.0 4.0 0.00 0.00 0.00 81 1016.1
20260510081052 56 200 3.0 6.0 0.00 0.00 0.00 81 1016.0
20260510080549 56 189 3.0 6.0 0.00 0.00 0.00 81 1016.1
20260510080052 56 167 3.0 5.0 0.00 0.00 0.00 81 1016.1
20260510075551 56 160 2.0 4.0 0.00 0.00 0.00 81 1016.2
20260510075053 56 162 2.0 3.0 0.00 0.00 0.00 80 1016.3
20260510074543 56 212 2.0 3.0 0.00 0.00 0.00 80 1016.3
20260510074044 56 212 2.0 2.0 0.00 0.00 0.00 80 1016.2
20260510073802 57 212 1.0 3.0 0.00 0.00 0.00 79 1016.1
20260510073035 57 212 2.0 5.0 0.00 0.00 0.00 78 1016.2
20260510072758 58 219 3.0 5.0 0.00 0.00 0.00 76 1016.0
20260510072032 58 241 4.0 6.0 0.00 0.00 0.00 76 1016.0
20260510071533 58 233 4.0 6.0 0.00 0.00 0.00 76 1015.9
20260510071033 58 240 4.0 8.0 0.00 0.00 0.00 75 1016.0
20260510070533 58 222 4.0 8.0 0.00 0.00 0.00 75 1015.9
20260510070032 59 242 4.0 6.0 0.00 0.00 0.00 74 1016.0
20260510065531 59 247 3.0 5.0 0.00 0.00 0.00 73 1016.0
20260510065027 59 236 4.0 8.0 0.00 0.00 0.00 73 1015.8
20260510064751 59 234 4.0 8.0 0.00 0.00 0.00 73 1015.8
20260510064250 59 237 4.0 6.0 0.00 0.00 0.00 73 1015.9
20260510063527 59 231 4.0 6.0 0.00 0.00 0.00 73 1015.8
20260510063024 60 231 4.0 8.0 0.00 0.00 0.00 72 1015.7
20260510062525 60 239 4.0 8.0 0.00 0.00 0.00 72 1015.8
20260510062025 60 244 3.0 5.0 0.00 0.00 0.00 73 1015.8
20260510061742 60 223 2.0 3.0 0.00 0.00 0.00 74 1015.8
20260510061021 60 225 1.0 4.0 0.00 0.00 0.00 74 1015.7
20260510060516 60 225 1.0 4.0 0.00 0.00 0.00 75 1015.7
20260510060017 60 12 0.0 2.0 0.00 0.00 0.00 77 1015.7
20260510055513 61 12 0.0 2.0 0.00 0.00 0.00 77 1015.7
20260510055014 62 12 0.0 1.0 0.00 0.00 0.00 76 1015.6
20260510054506 62 12 0.0 0.0 0.00 0.00 0.00 77 1015.5
20260510053951 62 12 0.0 3.0 0.00 0.00 0.00 76 1015.6
20260510053436 62 18 0.0 2.0 0.00 0.00 0.00 77 1015.7
20260510052925 62 18 1.0 2.0 0.00 0.00 0.00 77 1015.7
20260510052420 62 18 0.0 2.0 0.00 0.00 0.00 78 1015.6
20260510051912 62 265 1.0 3.0 0.00 0.00 0.00 77 1015.6
20260510051409 62 265 1.0 3.0 0.00 0.00 0.00 77 1015.5
20260510051129 62 261 2.0 4.0 0.00 0.00 0.00 78 1015.4
20260510050404 62 250 2.0 5.0 0.00 0.00 0.00 79 1015.3
20260510045854 62 250 2.0 5.0 0.00 0.00 0.00 80 1015.3
20260510045351 62 233 2.0 4.0 0.00 0.00 0.00 80 1015.2
20260510044852 63 270 2.0 4.0 0.00 0.00 0.00 80 1015.1
20260510044350 63 260 2.0 4.0 0.00 0.00 0.00 79 1015.0
20260510043847 63 254 1.0 3.0 0.00 0.00 0.00 76 1014.9
20260510043342 63 241 1.0 2.0 0.00 0.00 0.00 74 1015.0
20260510042840 63 241 0.0 1.0 0.00 0.00 0.00 73 1014.9
20260510042329 63 241 0.0 1.0 0.00 0.00 0.00 73 1014.9
20260510041828 63 241 0.0 1.0 0.00 0.00 0.00 73 1014.8
20260510041320 63 241 0.0 2.0 0.00 0.00 0.00 73 1014.7
20260510040811 63 241 1.0 2.0 0.00 0.00 0.00 73 1014.7
20260510040302 65 265 1.0 2.0 0.00 0.00 0.00 70 1014.7
20260510040022 65 265 2.0 3.0 0.00 0.00 0.00 68 1014.6
20260510035306 65 265 1.0 3.0 0.00 0.00 0.00 67 1014.4
20260510034750 66 265 1.0 3.0 0.00 0.00 0.00 67 1014.4
20260510034237 66 252 1.0 3.0 0.00 0.00 0.00 66 1014.3
20260510033723 66 252 2.0 3.0 0.00 0.00 0.00 66 1014.3
20260510033219 67 270 2.0 3.0 0.00 0.00 0.00 66 1014.3
20260510032719 67 258 2.0 3.0 0.00 0.00 0.00 65 1014.3
20260510032220 67 270 2.0 3.0 0.00 0.00 0.00 65 1014.3
20260510031940 68 257 2.0 3.0 0.00 0.00 0.00 65 1014.2
20260510031427 69 296 2.0 3.0 0.00 0.00 0.00 63 1014.2
20260510030710 69 296 1.0 3.0 0.00 0.00 0.00 62 1014.1
20260510030422 70 296 1.0 3.0 0.00 0.00 0.00 63 1014.1
20260510025654 71 296 1.0 3.0 0.00 0.00 0.00 58 1014.1
20260510025155 71 343 1.0 3.0 0.00 0.00 0.00 57 1014.0
20260510024649 71 343 2.0 3.0 0.00 0.00 0.00 56 1013.9
20260510024148 71 346 2.0 3.0 0.00 0.00 0.00 55 1013.9
20260510023641 72 356 3.0 5.0 0.00 0.00 0.00 54 1013.9
20260510023130 72 342 3.0 5.0 0.00 0.00 0.00 53 1014.0
20260510022621 72 324 3.0 4.0 0.00 0.00 0.00 53 1014.0
20260510022542 73 320 3.0 6.0 0.00 0.00 0.00 51 1014.1
20260510021552 73 2 3.0 6.0 0.00 0.00 0.00 51 1014.0
20260510021045 73 328 4.0 8.0 0.00 0.00 0.00 50 1014.2
20260510020546 73 350 4.0 8.0 0.00 0.00 0.00 49 1014.2
20260510020045 73 4 3.0 6.0 0.00 0.00 0.00 50 1014.3
20260510015545 73 357 3.0 6.0 0.00 0.00 0.00 51 1014.4
20260510015045 74 346 3.0 6.0 0.00 0.00 0.00 51 1014.4
20260510014549 74 352 3.0 5.0 0.00 0.00 0.00 50 1014.4
20260510014047 75 327 3.0 7.0 0.00 0.00 0.00 50 1014.3
20260510013540 74 0 4.0 8.0 0.00 0.00 0.00 49 1014.3
20260510013300 75 359 4.0 8.0 0.00 0.00 0.00 46 1014.4
20260510012800 75 3 4.0 8.0 0.00 0.00 0.00 49 1014.3
20260510012037 75 347 4.0 8.0 0.00 0.00 0.00 48 1014.3
20260510011536 76 348 4.0 8.0 0.00 0.00 0.00 49 1014.5
20260510011036 75 350 4.0 9.0 0.00 0.00 0.00 49 1014.5
20260510010534 75 337 4.0 9.0 0.00 0.00 0.00 49 1014.4
20260510010300 75 359 5.0 8.0 0.00 0.00 0.00 48 1014.5
20260510005531 76 343 5.0 9.0 0.00 0.00 0.00 47 1014.6
20260510005034 76 345 5.0 10.0 0.00 0.00 0.00 45 1014.6
20260510004530 75 352 5.0 11.0 0.00 0.00 0.00 46 1014.6
20260510004032 76 15 5.0 11.0 0.00 0.00 0.00 44 1014.6
20260510003531 76 337 5.0 11.0 0.00 0.00 0.00 45 1014.6
20260510003030 77 321 5.0 11.0 0.00 0.00 0.00 42 1014.7
20260510002532 76 3 5.0 11.0 0.00 0.00 0.00 44 1014.6
20260510002031 76 336 5.0 11.0 0.00 0.00 0.00 45 1014.7
20260510001748 76 357 5.0 10.0 0.00 0.00 0.00 46 1014.7
20260510001024 77 358 5.0 10.0 0.00 0.00 0.00 46 1014.6
20260510000522 76 344 5.0 10.0 0.00 0.00 0.00 48 1014.7
20260510000021 76 33 5.0 10.0 0.00 0.00 0.00 46 1014.7
20260509235738 77 0 7.0 13.0 0.00 0.00 0.00 46 1014.7
20260509235618 76 2 6.0 13.0 0.00 0.00 0.00 46 1014.7
20260509234736 76 359 7.0 11.0 0.00 0.00 0.00 48 1014.8
20260509234239 77 12 7.0 11.0 0.00 0.00 0.00 50 1014.7
20260509233511 77 344 6.0 12.0 0.00 0.00 0.00 48 1014.7
20260509233007 77 5 7.0 12.0 0.00 0.00 0.00 48 1014.8
20260509232506 76 356 6.0 11.0 0.00 0.00 0.00 47 1014.8
20260509232005 76 359 7.0 11.0 0.00 0.00 0.00 50 1014.9
20260509231501 76 21 7.0 11.0 0.00 0.00 0.00 46 1015.0
20260509231003 76 16 7.0 11.0 0.00 0.00 0.00 50 1015.1
20260509230458 76 11 7.0 12.0 0.00 0.00 0.00 48 1015.1
20260509225958 76 352 6.0 12.0 0.00 0.00 0.00 50 1015.2
20260509225458 77 333 6.0 12.0 0.00 0.00 0.00 50 1015.3
20260509224956 76 344 7.0 18.0 0.00 0.00 0.00 52 1015.5
20260509224719 76 344 7.0 18.0 0.00 0.00 0.00 53 1015.6
20260509223954 76 344 7.0 15.0 0.00 0.00 0.00 54 1015.6
20260509223454 76 348 8.0 15.0 0.00 0.00 0.00 53 1015.6
20260509222953 77 348 7.0 13.0 0.00 0.00 0.00 53 1015.6
20260509222454 76 6 6.0 12.0 0.00 0.00 0.00 53 1015.7
20260509221954 76 19 5.0 11.0 0.00 0.00 0.00 51 1015.8
20260509221451 76 345 5.0 10.0 0.00 0.00 0.00 54 1015.8
20260509221210 76 31 6.0 10.0 0.00 0.00 0.00 53 1015.9
20260509220450 76 76 7.0 13.0 0.00 0.00 0.00 50 1016.0
20260509215949 75 48 7.0 13.0 0.00 0.00 0.00 55 1016.2
20260509215449 75 350 7.0 12.0 0.00 0.00 0.00 54 1016.2
20260509214947 75 6 7.0 12.0 0.00 0.00 0.00 55 1016.3
20260509214446 74 4 7.0 12.0 0.00 0.00 0.00 55 1016.5
20260509213946 75 64 7.0 12.0 0.00 0.00 0.00 55 1016.6
20260509213445 76 29 7.0 13.0 0.00 0.00 0.00 56 1016.5
20260509212945 75 8 7.0 13.0 0.00 0.00 0.00 54 1016.5
20260509212445 75 2 8.0 14.0 0.00 0.00 0.00 53 1016.4
20260509211942 75 349 7.0 14.0 0.00 0.00 0.00 53 1016.6
20260509211444 75 5 6.0 12.0 0.00 0.00 0.00 55 1016.6
20260509210944 75 352 5.0 11.0 0.00 0.00 0.00 59 1016.6
20260509210702 75 4 6.0 13.0 0.00 0.00 0.00 56 1016.5
20260509210205 75 9 7.0 13.0 0.00 0.00 0.00 56 1016.7
20260509205440 73 13 6.0 11.0 0.00 0.00 0.00 58 1016.9
20260509204939 72 352 6.0 13.0 0.00 0.00 0.00 58 1016.8
20260509204439 74 356 7.0 14.0 0.00 0.00 0.00 54 1016.8
20260509203937 74 13 7.0 14.0 0.00 0.00 0.00 54 1016.9
20260509203659 75 343 6.0 13.0 0.00 0.00 0.00 57 1017.1
20260509202936 74 329 6.0 12.0 0.00 0.00 0.00 57 1017.0
20260509202433 74 28 7.0 12.0 0.00 0.00 0.00 58 1017.1
20260509201935 73 358 6.0 10.0 0.00 0.00 0.00 61 1017.1
20260509201435 72 354 6.0 12.0 0.00 0.00 0.00 62 1017.1
20260509201412 71 334 6.0 12.0 0.00 0.00 0.00 59 1017.2
20260509200428 73 27 7.0 12.0 0.00 0.00 0.00 60 1017.2
20260509200152 71 338 8.0 12.0 0.00 0.00 0.00 61 1017.3
20260509195645 71 19 7.0 12.0 0.00 0.00 0.00 60 1017.4
20260509194922 72 34 6.0 11.0 0.00 0.00 0.00 60 1017.4
20260509194423 72 22 5.0 10.0 0.00 0.00 0.00 61 1017.5
20260509193922 71 340 5.0 10.0 0.00 0.00 0.00 62 1017.5
20260509193909 71 353 6.0 11.0 0.00 0.00 0.00 63 1017.4
20260509193135 70 338 7.0 13.0 0.00 0.00 0.00 62 1017.5
20260509192415 70 9 7.0 13.0 0.00 0.00 0.00 64 1017.6
20260509192134 70 357 6.0 13.0 0.00 0.00 0.00 62 1017.6
20260509191410 69 358 6.0 11.0 0.00 0.00 0.00 67 1017.8
20260509190907 69 27 6.0 11.0 0.00 0.00 0.00 65 1017.9
20260509190408 69 359 5.0 10.0 0.00 0.00 0.00 67 1017.9
20260509185904 68 37 5.0 11.0 0.00 0.00 0.00 65 1018.0
20260509185404 69 337 4.0 11.0 0.00 0.00 0.00 67 1018.1
20260509184904 69 332 4.0 10.0 0.00 0.00 0.00 66 1018.2
20260509184403 68 302 5.0 10.0 0.00 0.00 0.00 69 1018.3
20260509183903 68 357 5.0 11.0 0.00 0.00 0.00 67 1018.4
20260509183617 67 282 5.0 12.0 0.00 0.00 0.00 65 1018.4
20260509182859 67 354 5.0 12.0 0.00 0.00 0.00 70 1018.4
20260509182853 67 349 4.0 9.0 0.00 0.00 0.00 67 1018.5
20260509181859 67 310 3.0 9.0 0.00 0.00 0.00 70 1018.5
20260509181400 66 36 4.0 9.0 0.00 0.00 0.00 68 1018.5
20260509180859 67 3 4.0 9.0 0.00 0.00 0.00 71 1018.5
20260509180357 65 358 4.0 8.0 0.00 0.00 0.00 72 1018.5
20260509175856 64 42 4.0 8.0 0.00 0.00 0.00 75 1018.6
20260509175357 63 33 4.0 8.0 0.00 0.00 0.00 75 1018.7
20260509174853 63 33 5.0 10.0 0.00 0.00 0.00 74 1018.7
20260509174356 62 15 5.0 10.0 0.00 0.00 0.00 77 1018.7
20260509173853 63 29 4.0 8.0 0.00 0.00 0.00 72 1018.6
20260509173354 61 16 4.0 9.0 0.00 0.00 0.00 79 1018.6
20260509172853 62 43 4.0 9.0 0.00 0.00 0.00 75 1018.7
20260509172350 62 24 4.0 8.0 0.00 0.00 0.00 76 1018.8
20260509171854 61 22 5.0 8.0 0.00 0.00 0.00 76 1019.0
20260509171349 60 358 5.0 10.0 0.00 0.00 0.00 78 1019.1
20260509170849 60 308 5.0 10.0 0.00 0.00 0.00 78 1019.1
20260509170349 60 3 4.0 9.0 0.00 0.00 0.00 79 1019.0
20260509165846 61 358 5.0 9.0 0.00 0.00 0.00 78 1019.2
20260509165610 60 340 5.0 9.0 0.00 0.00 0.00 78 1019.2
20260509165108 59 4 4.0 8.0 0.00 0.00 0.00 81 1019.2
20260509164345 59 44 5.0 10.0 0.00 0.00 0.00 80 1019.3
20260509163843 58 23 6.0 10.0 0.00 0.00 0.00 81 1019.4
20260509163344 58 0 6.0 10.0 0.00 0.00 0.00 80 1019.5
20260509162843 57 13 6.0 10.0 0.00 0.00 0.00 82 1019.5
20260509162343 57 27 6.0 9.0 0.00 0.00 0.00 82 1019.5
20260509161843 57 19 5.0 9.0 0.00 0.00 0.00 83 1019.6
20260509161342 57 327 5.0 10.0 0.00 0.00 0.00 85 1019.7
20260509160839 56 352 5.0 10.0 0.00 0.00 0.00 85 1019.7
20260509160338 56 341 4.0 8.0 0.00 0.00 0.00 87 1019.6
20260509155830 55 8 3.0 6.0 0.00 0.00 0.00 87 1019.6
20260509155333 55 26 3.0 6.0 0.00 0.00 0.00 88 1019.8
20260509154830 55 328 3.0 7.0 0.00 0.00 0.00 88 1019.7
20260509154328 54 332 3.0 7.0 0.00 0.00 0.00 90 1019.7
20260509153827 53 358 3.0 7.0 0.00 0.00 0.00 88 1019.7
20260509153325 54 36 3.0 7.0 0.00 0.00 0.00 89 1019.8
20260509152818 53 308 3.0 7.0 0.00 0.00 0.00 91 1019.9
20260509152317 53 5 3.0 6.0 0.00 0.00 0.00 91 1019.9
20260509151809 53 0 3.0 5.0 0.00 0.00 0.00 92 1019.8
20260509151303 52 325 3.0 5.0 0.00 0.00 0.00 92 1019.9
20260509150808 52 330 3.0 6.0 0.00 0.00 0.00 92 1019.8
20260509150304 51 329 4.0 6.0 0.00 0.00 0.00 92 1019.8
20260509145801 51 1 4.0 7.0 0.00 0.00 0.00 93 1019.9
20260509145301 51 23 4.0 7.0 0.00 0.00 0.00 92 1019.9
20260509145014 51 346 3.0 7.0 0.00 0.00 0.00 93 1019.9
20260509144901 51 354 3.0 7.0 0.00 0.00 0.00 93 1019.8
20260509143802 50 22 3.0 7.0 0.00 0.00 0.00 94 1019.9
20260509143257 50 338 2.0 4.0 0.00 0.00 0.00 95 1019.9
20260509142759 49 12 1.0 4.0 0.00 0.00 0.00 95 1019.9
20260509142259 49 0 1.0 2.0 0.00 0.00 0.00 95 1019.9
20260509141752 49 121 1.0 2.0 0.00 0.00 0.00 96 1020.0
20260509141248 48 121 1.0 2.0 0.00 0.00 0.00 96 1020.1
20260509140748 47 121 0.0 2.0 0.00 0.00 0.00 95 1020.1
20260509140248 47 121 0.0 0.0 0.00 0.00 0.00 95 1019.9
20260509135741 46 121 0.0 0.0 0.00 0.00 0.00 95 1020.0
20260509135240 46 121 0.0 0.0 0.00 0.00 0.00 95 1019.9
20260509134737 45 121 0.0 0.0 0.00 0.00 0.00 95 1019.9
20260509134210 45 121 0.0 1.0 0.00 0.00 0.00 95 1020.0
20260509133707 44 120 1.0 2.0 0.00 0.00 0.00 94 1020.0
20260509133146 44 120 1.0 2.0 0.00 0.00 0.00 94 1020.0
20260509133130 44 120 1.0 2.0 0.00 0.00 0.00 94 1020.0
20260509132144 45 120 1.0 3.0 0.00 0.00 0.00 95 1020.0
20260509131632 44 120 2.0 3.0 0.00 0.00 0.00 95 1019.9
20260509131124 44 194 1.0 2.0 0.00 0.00 0.00 94 1019.9
20260509130823 44 194 1.0 2.0 0.00 0.00 0.00 94 1020.0
20260509130101 44 194 1.0 2.0 0.00 0.00 0.00 94 1020.2
20260509125559 44 309 0.0 2.0 0.00 0.00 0.00 94 1020.2
20260509125542 44 125 0.0 0.0 0.00 0.00 0.00 94 1020.3